This is the latest recevied weather packets stored in our database for station/object N4NVD-13. If no packets are shown the sender has not sent any weather packets the latest 10 day(s).
| Time | Temp. | Humidity | Pressure | Rain* | Wind** | Luminosity | Snow |
|---|---|---|---|---|---|---|---|
| 1777766978 | 23.89° C | 51% | 1018.6 hPa | 0 mm | - | 66 W/m² | - |
| 1777766675 | 23.89° C | 51% | 1018.3 hPa | 0 mm | - | 73 W/m² | - |
| 1777766373 | 24.44° C | 49% | 1018.5 hPa | 0 mm | - | 82 W/m² | - |
| 1777766069 | 23.89° C | 50% | 1018.3 hPa | 0 mm | - | 97 W/m² | - |
| 1777765767 | 23.89° C | 48% | 1018.3 hPa | 0 mm | - | 115 W/m² | - |
| 1777765463 | 23.33° C | 50% | 1018.2 hPa | 0 mm | - | 119 W/m² | - |
| 1777765160 | 23.89° C | 49% | 1018.2 hPa | 0 mm | - | 126 W/m² | - |
| 1777764855 | 23.89° C | 50% | 1018.3 hPa | 0 mm | - | 164 W/m² | - |
| 1777764553 | 23.89° C | 49% | 1018.2 hPa | 0 mm | - | 164 W/m² | - |
| 1777764249 | 23.89° C | 49% | 1018.2 hPa | 0 mm | - | 166 W/m² | - |
| 1777763946 | 23.89° C | 48% | 1018 hPa | 0 mm | - | 193 W/m² | - |
| 1777763644 | 24.44° C | 50% | 1018.2 hPa | 0 mm | - | 203 W/m² | - |
| 1777763342 | 24.44° C | 48% | 1018.1 hPa | 0 mm | - | 234 W/m² | - |
| 1777763040 | 23.33° C | 51% | 1018.2 hPa | 0 mm | - | 220 W/m² | - |
| 1777762736 | 23.33° C | 49% | 1018 hPa | 0 mm | - | 267 W/m² | - |
| 1777762433 | 23.89° C | 48% | 1018.2 hPa | 0 mm | - | 184 W/m² | - |
| 1777762130 | 23.89° C | 48% | 1018.2 hPa | 0 mm | - | 236 W/m² | - |
| 1777761826 | 23.33° C | 47% | 1018.1 hPa | 0 mm | - | 165 W/m² | - |
| 1777761523 | 23.89° C | 47% | 1018.5 hPa | 0 mm | - | 340 W/m² | - |
| 1777761221 | 23.89° C | 47% | 1018.5 hPa | 0 mm | - | 313 W/m² | - |
| 1777760919 | 23.33° C | 53% | 1018.3 hPa | 0 mm | - | 300 W/m² | - |
| 1777760616 | 23.33° C | 50% | 1018.4 hPa | 0 mm | - | 78 W/m² | - |
| 1777760312 | 24.44° C | 49% | 1018.5 hPa | 0 mm | - | 106 W/m² | - |
| 1777760008 | 25.56° C | 47% | 1018.1 hPa | 0 mm | - | 455 W/m² | - |
| 1777759706 | 25.56° C | 46% | 1018.4 hPa | 0 mm | - | 481 W/m² | - |
* Rain latest hour (hover to see other rain measurements)
** Current wind speed in m/s (hover to see current wind gust speed)